Location: Sagn�
(15.2046°N, 12.7898°W)
Time: 12:28:16
(UTC+00:00)

GPS 2-04 Rocket1 - Pass Details

Date: 08 May 2021
Orbit: 416 x 540 km, 35.6° (Epoch: 14 June)

Event Time Altitude Azimuth Distance (km) Brightness Sun altitude
Rises 20:05:41 0° 251° (WSW) 2,677 7.1 -13.3°
Reaches altitude 10° 20:08:03 10° 259° (W) 1,785 6.3 -13.8°
Maximum altitude 20:11:55 38° 328° (NNW) 821 4.2 -14.7°
Drops below altitude 10° 20:15:43 10° 38° (NE) 1,758 5.2 -15.5°
Enters shadow 20:17:32 - 45° (NE) 2,436 5.9 -15.9°
